Weather History for KGCM - June, 2013

Change the Weather History Date:

Tuesday, June 11, 2013

  Actual Average (KTUL) Record (KTUL)
Temperature  
Mean Temperature 80 °F 76 °F  
Max Temperature 91 °F 86 °F 100 °F (1924)
Min Temperature 68 °F 67 °F 51 °F (1955)
Cooling Degree Days 14 11  
Month to date cooling degree days 111  
Year to date cooling degree days 345  
Since 1 June cooling degree days 111  
Growing Degree Days 30 (Base 50)    
Moisture  
Dew Point 68 °F    
Average Humidity 66    
Maximum Humidity 88    
Minimum Humidity 41    
Precipitation  
Precipitation 0.00 in 0.16 in 2.09 in (1945)
Month to date precipitation 1.99  
Year to date precipitation 18.49  
Sea Level Pressure  
Sea Level Pressure 29.95 in    
Wind  
Wind Speed 10 mph (South)    
Max Wind Speed 21 mph    
Max Gust Speed 26 mph    
Visibility 10 miles    
Events      
T = Trace of Precipitation, MM = Missing Value Source: NWS Daily Summary

Daily Weather History Graph

Daily Weather History Graph

Search for Another Location

Airport or City:

Trip Planner

Search our weather history database for the weather conditions in past years. The results will help you decide how hot, cold, wet, or windy it might be!

Date:

Astronomy

Jun. 11, 2013 Rise Set
Actual Time 6:03 AM CDT 8:39 PM CDT
Civil Twilight 5:33 AM CDT 9:09 PM CDT
Nautical Twilight 4:55 AM CDT 9:47 PM CDT
Astronomical Twilight 4:13 AM CDT 10:29 PM CDT
Moon 8:44 AM CDT (6/11) 10:47 PM CDT (6/11)
Length of Visible Light 15h 36m
Length of Day
14h 35m
Waxing Crescent, 8% of the Moon is Illuminated
Jun 11
Waxing Crescent
Jun 16
First Quarter
Jun 23
Full
Jun 29
Last Quarter
Jul 8
New

Hourly Weather History & Observations

Time (CDT) Temp. Heat Index Dew Point Humidity Pressure Visibility Wind Dir Wind Speed Gust Speed Precip Events Conditions
12:15 AM 75.2 °F - 68.0 °F 78% 29.92 in 10.0 mi South 8.1 mph - N/A   Clear
12:35 AM 75.2 °F - 68.0 °F 78% 29.92 in 10.0 mi South 8.1 mph - N/A   Clear
12:55 AM 73.4 °F - 68.0 °F 83% 29.92 in 10.0 mi South 6.9 mph - N/A   Clear
1:15 AM 73.4 °F - 68.0 °F 83% 29.91 in 10.0 mi South 8.1 mph - N/A   Clear
1:35 AM 73.4 °F - 68.0 °F 83% 29.92 in 10.0 mi South 6.9 mph - N/A   Clear
1:55 AM 73.4 °F - 68.0 °F 83% 29.92 in 10.0 mi South 8.1 mph - N/A   Clear
2:35 AM 71.6 °F - 68.0 °F 88% 29.92 in 10.0 mi South 5.8 mph - N/A   Clear
2:55 AM 71.6 °F - 68.0 °F 88% 29.92 in 10.0 mi South 5.8 mph - N/A   Clear
3:15 AM 71.6 °F - 68.0 °F 88% 29.92 in 10.0 mi South 5.8 mph - N/A   Clear
3:35 AM 71.6 °F - 68.0 °F 88% 29.92 in 10.0 mi South 6.9 mph - N/A   Clear
3:55 AM 71.6 °F - 66.2 °F 83% 29.92 in 10.0 mi South 8.1 mph - N/A   Clear
4:15 AM 71.6 °F - 66.2 °F 83% 29.92 in 10.0 mi South 8.1 mph - N/A   Clear
4:35 AM 71.6 °F - 66.2 °F 83% 29.92 in 10.0 mi South 8.1 mph - N/A   Clear
4:55 AM 69.8 °F - 66.2 °F 88% 29.93 in 10.0 mi South 5.8 mph - N/A   Clear
5:15 AM 69.8 °F - 66.2 °F 88% 29.93 in 10.0 mi South 5.8 mph - N/A   Clear
5:35 AM 69.8 °F - 64.4 °F 83% 29.95 in 10.0 mi SSE 5.8 mph - N/A   Clear
6:15 AM 68.0 °F - 64.4 °F 88% 29.96 in 10.0 mi SE 6.9 mph - N/A   Clear
6:35 AM 68.0 °F - 64.4 °F 88% 29.96 in 10.0 mi SSE 5.8 mph - N/A   Clear
6:55 AM 69.8 °F - 66.2 °F 88% 29.97 in 10.0 mi SSE 5.8 mph - N/A   Clear
7:15 AM 71.6 °F - 66.2 °F 83% 29.97 in 10.0 mi SSE 5.8 mph - N/A   Clear
7:35 AM 71.6 °F - 68.0 °F 88% 29.98 in 10.0 mi South 5.8 mph - N/A   Clear
7:55 AM 73.4 °F - 66.2 °F 78% 29.98 in 10.0 mi South 9.2 mph - N/A   Clear
8:15 AM 75.2 °F - 68.0 °F 78% 29.98 in 10.0 mi South 12.7 mph - N/A   Clear
8:55 AM 77.0 °F - 68.0 °F 74% 29.99 in 10.0 mi SSW 12.7 mph - N/A   Clear
9:15 AM 78.8 °F - 68.0 °F 69% 30.00 in 10.0 mi SSW 11.5 mph - N/A   Clear
9:35 AM 80.6 °F 83.2 °F 68.0 °F 65% 30.00 in 10.0 mi SSW 12.7 mph - N/A   Clear
9:55 AM 80.6 °F 83.2 °F 68.0 °F 65% 30.00 in 10.0 mi South 11.5 mph - N/A   Clear
10:15 AM 82.4 °F 86.3 °F 69.8 °F 66% 30.00 in 10.0 mi South 9.2 mph - N/A   Clear
10:35 AM 82.4 °F 86.3 °F 69.8 °F 66% 30.00 in 10.0 mi South 11.5 mph - N/A   Clear
10:55 AM 86.0 °F 89.4 °F 68.0 °F 55% 30.00 in 10.0 mi SSW 12.7 mph 17.3 mph N/A   Clear
11:15 AM 86.0 °F 90.4 °F 69.8 °F 58% 30.00 in 10.0 mi South 13.8 mph - N/A   Clear
11:35 AM 86.0 °F 90.4 °F 69.8 °F 58% 30.00 in 10.0 mi South 11.5 mph - N/A   Clear
11:55 AM 87.8 °F 92.6 °F 69.8 °F 55% 30.00 in 10.0 mi South 15.0 mph - N/A   Clear
12:15 PM 87.8 °F 91.4 °F 68.0 °F 52% 30.00 in 10.0 mi South 17.3 mph 23.0 mph N/A   Clear
12:35 PM 89.6 °F 93.4 °F 68.0 °F 49% 30.00 in 10.0 mi SSW 18.4 mph 24.2 mph N/A   Clear
12:55 PM 89.6 °F 93.4 °F 68.0 °F 49% 30.00 in 10.0 mi SSW 16.1 mph 20.7 mph N/A   Clear
1:15 PM 89.6 °F 94.7 °F 69.8 °F 52% 30.00 in 10.0 mi SSW 13.8 mph 17.3 mph N/A   Clear
1:35 PM 89.6 °F 93.4 °F 68.0 °F 49% 29.99 in 10.0 mi South 16.1 mph 23.0 mph N/A   Clear
1:55 PM 89.6 °F 92.2 °F 66.2 °F 46% 29.99 in 10.0 mi South 15.0 mph 20.7 mph N/A   Clear
2:15 PM 89.6 °F 91.1 °F 64.4 °F 43% 29.98 in 10.0 mi SSW 15.0 mph 20.7 mph N/A   Clear
2:35 PM 89.6 °F 91.1 °F 64.4 °F 43% 29.98 in 10.0 mi South 16.1 mph 25.3 mph N/A   Clear
2:55 PM 91.4 °F 94.0 °F 66.2 °F 43% 29.97 in 10.0 mi SSW 17.3 mph - N/A   Clear
3:15 PM 91.4 °F 93.2 °F 64.4 °F 41% 29.96 in 10.0 mi SSW 16.1 mph 26.5 mph N/A   Clear
3:35 PM 91.4 °F 95.4 °F 68.0 °F 46% 29.96 in 10.0 mi South 13.8 mph - N/A   Clear
3:55 PM 91.4 °F 95.4 °F 68.0 °F 46% 29.95 in 10.0 mi South 15.0 mph 24.2 mph N/A   Clear
4:15 PM 91.4 °F 95.4 °F 68.0 °F 46% 29.95 in 10.0 mi SSW 20.7 mph 24.2 mph N/A   Clear
4:35 PM 91.4 °F 95.4 °F 68.0 °F 46% 29.94 in 10.0 mi SSW 17.3 mph 25.3 mph N/A   Clear
4:55 PM 91.4 °F 96.8 °F 69.8 °F 49% 29.93 in 10.0 mi SSW 17.3 mph - N/A   Clear
5:15 PM 89.6 °F 94.7 °F 69.8 °F 52% 29.93 in 10.0 mi South 16.1 mph 23.0 mph N/A   Clear
5:35 PM 89.6 °F 94.7 °F 69.8 °F 52% 29.93 in 10.0 mi South 12.7 mph - N/A   Clear
5:55 PM 89.6 °F 94.7 °F 69.8 °F 52% 29.92 in 10.0 mi South 16.1 mph 21.9 mph N/A   Clear
6:15 PM 89.6 °F 96.2 °F 71.6 °F 55% 29.92 in 10.0 mi South 13.8 mph - N/A   Clear
6:35 PM 87.8 °F 93.8 °F 71.6 °F 58% 29.91 in 10.0 mi South 15.0 mph 20.7 mph N/A   Clear
6:55 PM 87.8 °F 92.6 °F 69.8 °F 55% 29.91 in 10.0 mi South 11.5 mph 17.3 mph N/A   Clear
7:15 PM 87.8 °F 93.8 °F 71.6 °F 58% 29.91 in 10.0 mi South 11.5 mph - N/A   Clear
7:35 PM 86.0 °F 90.4 °F 69.8 °F 58% 29.91 in 10.0 mi South 12.7 mph 16.1 mph N/A   Clear
7:55 PM 86.0 °F 90.4 °F 69.8 °F 58% 29.92 in 10.0 mi South 11.5 mph - N/A   Clear
8:15 PM 84.2 °F 88.4 °F 69.8 °F 62% 29.92 in 10.0 mi South 12.7 mph - N/A   Clear
8:35 PM 82.4 °F 86.3 °F 69.8 °F 66% 29.92 in 10.0 mi South 10.4 mph - N/A   Clear
8:55 PM 82.4 °F 86.3 °F 69.8 °F 66% 29.93 in 10.0 mi South 10.4 mph 16.1 mph N/A   Clear
9:15 PM 80.6 °F 83.9 °F 69.8 °F 70% 29.93 in 10.0 mi South 11.5 mph - N/A   Clear
9:35 PM 80.6 °F 83.9 °F 69.8 °F 70% 29.93 in 10.0 mi South 9.2 mph - N/A   Clear
9:55 PM 80.6 °F 83.9 °F 69.8 °F 70% 29.94 in 10.0 mi South 10.4 mph - N/A   Clear
10:15 PM 80.6 °F 83.2 °F 68.0 °F 65% 29.95 in 10.0 mi South 11.5 mph - N/A   Clear
10:35 PM 80.6 °F 83.2 °F 68.0 °F 65% 29.95 in 10.0 mi South 11.5 mph 16.1 mph N/A   Clear
10:55 PM 78.8 °F - 68.0 °F 69% 29.95 in 10.0 mi South 10.4 mph - N/A   Clear
11:15 PM 78.8 °F - 69.8 °F 74% 29.95 in 10.0 mi South 11.5 mph - N/A   Clear
11:35 PM 78.8 °F - 69.8 °F 74% 29.96 in 10.0 mi South 10.4 mph - N/A   Clear
11:55 PM 78.8 °F - 68.0 °F 69% 29.96 in 10.0 mi South 10.4 mph - N/A   Clear